QPF
0.00 0.00 0.00 0.00 0.02 0.02 0.02 0.02 0.03 0.03 0.01 0.02 0.01 0.01 0.01 0.01 0.02 0.03 0.02 0.02 0.04 0.05 0.07 0.11 0.13 0.07 0.05 0.06 0.06 0.07 0.10 0.10 0.12 0.10 0.08 0.08 0.08 0.08 0.09 0.09 0.09 0.10 0.11 0.11 0.19 0.22 0.19 0.16 0.10
0.00 0.00 0.00 0.01 0.02 0.02 0.02 0.03 0.04 0.03 0.01 0.01 0.00 0.01 0.01 0.01 0.01 0.02 0.03 0.02 0.03 0.04 0.05 0.09 0.11 0.09 0.07 0.07 0.06 0.05 0.07 0.09 0.12 0.11 0.09 0.07 0.06 0.07 0.08 0.07 0.07 0.09 0.11 0.11 0.13 0.14 0.14 0.11 0.08
0.00 0.00 0.01 0.01 0.02 0.03 0.03 0.03 0.03 0.01 0.01 0.01 0.00 0.00 0.00 0.01 0.01 0.01 0.02 0.02 0.03 0.03 0.04 0.07 0.09 0.12 0.09 0.08 0.07 0.05 0.06 0.08 0.11 0.10 0.09 0.06 0.04 0.06 0.07 0.07 0.07 0.08 0.09 0.10 0.12 0.13 0.11 0.10 0.07
0.00 0.00 0.01 0.01 0.02 0.01 0.01 0.01 0.01 0.02 0.02 0.01 0.01 0.01 0.01 0.01 0.02 0.01 0.01 0.01 0.02 0.03 0.03 0.04 0.04 0.09 0.11 0.09 0.06 0.06 0.08 0.12 0.16 0.11 0.10 0.08 0.06 0.08 0.08 0.07 0.08 0.08 0.08 0.10 0.14 0.11 0.09 0.09 0.08
0.00 0.01 0.02 0.02 0.01 0.00 0.00 0.00 0.01 0.03 0.02 0.01 0.01 0.01 0.01 0.01 0.01 0.01 0.01 0.01 0.02 0.02 0.03 0.04 0.04 0.07 0.08 0.09 0.08 0.08 0.09 0.15 0.21 0.17 0.14 0.12 0.10 0.09 0.09 0.09 0.09 0.08 0.09 0.11 0.13 0.11 0.09 0.08 0.09
0.01 0.02 0.03 0.02 0.00 0.00 0.00 0.00 0.00 0.02 0.01 0.01 0.01 0.01 0.02 0.02 0.02 0.01 0.02 0.02 0.03 0.03 0.03 0.04 0.04 0.05 0.07 0.09 0.11 0.13 0.12 0.13 0.18 0.18 0.15 0.12 0.08 0.07 0.08 0.08 0.09 0.09 0.11 0.14 0.16 0.13 0.10 0.10 0.09
0.01 0.02 0.02 0.01 0.00 0.00 0.01 0.00 0.00 0.00 0.00 0.00 0.00 0.01 0.02 0.02 0.02 0.02 0.02 0.03 0.05 0.04 0.02 0.04 0.06 0.07 0.06 0.10 0.16 0.18 0.15 0.15 0.15 0.15 0.10 0.07 0.04 0.05 0.07 0.06 0.08 0.11 0.14 0.15 0.17 0.17 0.16 0.12 0.10
0.00 0.01 0.01 0.00 0.00 0.00 0.01 0.00 0.00 0.00 0.00 0.00 0.01 0.01 0.03 0.02 0.02 0.02 0.02 0.03 0.03 0.02 0.01 0.03 0.04 0.06 0.06 0.09 0.14 0.19 0.16 0.16 0.15 0.17 0.11 0.10 0.07 0.07 0.07 0.07 0.07 0.10 0.13 0.16 0.20 0.20 0.19 0.15 0.15
0.00 0.01 0.01 0.00 0.00 0.00 0.00 0.00 0.00 0.00 0.00 0.00 0.01 0.01 0.01 0.01 0.02 0.02 0.02 0.03 0.03 0.02 0.02 0.02 0.04 0.05 0.05 0.06 0.09 0.16 0.18 0.19 0.19 0.19 0.16 0.15 0.15 0.14 0.12 0.10 0.11 0.13 0.14 0.19 0.22 0.23 0.20 0.17 0.14
0.00 0.01 0.00 0.00 0.00 0.00 0.00 0.01 0.01 0.00 0.00 0.01 0.01 0.01 0.01 0.01 0.01 0.02 0.03 0.02 0.02 0.03 0.03 0.02 0.02 0.03 0.03 0.05 0.11 0.12 0.10 0.14 0.18 0.22 0.18 0.13 0.14 0.15 0.15 0.16 0.20 0.22 0.22 0.24 0.28 0.32 0.24 0.17 0.12
0.00 0.00 0.00 0.00 0.01 0.00 0.00 0.00 0.00 0.00 0.00 0.00 0.01 0.01 0.01 0.01 0.01 0.01 0.02 0.02 0.02 0.03 0.03 0.02 0.01 0.02 0.03 0.05 0.07 0.05 0.06 0.14 0.22 0.21 0.18 0.15 0.14 0.15 0.17 0.19 0.24 0.27 0.31 0.30 0.29 0.27 0.18 0.15 0.11
0.00 0.00 0.00 0.00 0.00 0.00 0.00 0.00 0.00 0.00 0.00 0.00 0.00 0.01 0.01 0.01 0.01 0.01 0.01 0.02 0.01 0.02 0.02 0.01 0.01 0.03 0.04 0.06 0.05 0.05 0.06 0.13 0.21 0.23 0.21 0.23 0.25 0.29 0.28 0.24 0.24 0.30 0.32 0.23 0.18 0.17 0.14 0.12 0.10
0.00 0.00 0.00 0.00 0.00 0.00 0.00 0.00 0.00 0.00 0.00 0.00 0.01 0.01 0.01 0.01 0.00 0.01 0.01 0.01 0.01 0.01 0.02 0.02 0.03 0.04 0.04 0.03 0.03 0.03 0.04 0.06 0.09 0.12 0.15 0.25 0.32 0.33 0.26 0.18 0.21 0.27 0.20 0.14 0.12 0.10 0.07 0.07 0.07
0.00 0.00 0.00 0.00 0.00 0.00 0.00 0.00 0.00 0.00 0.00 0.00 0.00 0.01 0.00 0.00 0.00 0.00 0.00 0.01 0.02 0.02 0.04 0.06 0.06 0.04 0.04 0.03 0.02 0.02 0.03 0.03 0.03 0.06 0.09 0.13 0.18 0.19 0.16 0.12 0.12 0.09 0.07 0.07 0.08 0.08 0.07 0.06 0.06
0.00 0.00 0.00 0.00 0.00 0.00 0.00 0.00 0.00 0.00 0.00 0.00 0.00 0.00 0.00 0.00 0.00 0.00 0.00 0.01 0.01 0.01 0.03 0.04 0.04 0.04 0.04 0.03 0.03 0.04 0.04 0.03 0.03 0.04 0.05 0.07 0.10 0.11 0.14 0.13 0.12 0.09 0.07 0.08 0.09 0.08 0.07 0.07 0.06
0.00 0.00 0.00 0.00 0.00 0.00 0.00 0.00 0.00 0.00 0.00 0.00 0.00 0.00 0.00 0.00 0.00 0.01 0.01 0.01 0.02 0.01 0.02 0.02 0.03 0.04 0.04 0.03 0.04 0.03 0.04 0.04 0.03 0.03 0.04 0.04 0.05 0.07 0.10 0.10 0.10 0.09 0.08 0.07 0.08 0.08 0.07 0.07 0.07
0.00 0.00 0.00 0.00 0.00 0.00 0.00 0.00 0.00 0.00 0.00 0.00 0.00 0.00 0.00 0.00 0.01 0.01 0.01 0.01 0.02 0.02 0.02 0.02 0.03 0.05 0.05 0.03 0.03 0.03 0.03 0.02 0.03 0.03 0.04 0.04 0.04 0.04 0.05 0.06 0.06 0.06 0.06 0.07 0.06 0.05 0.04 0.05 0.06
0.00 0.00 0.00 0.00 0.00 0.00 0.00 0.00 0.00 0.00 0.00 0.00 0.00 0.01 0.01 0.01 0.01 0.01 0.01 0.02 0.02 0.02 0.01 0.01 0.02 0.04 0.04 0.03 0.02 0.02 0.02 0.02 0.02 0.02 0.04 0.05 0.05 0.03 0.03 0.04 0.04 0.04 0.05 0.06 0.05 0.05 0.04 0.04 0.05
0.00 0.00 0.00 0.00 0.00 0.00 0.00 0.00 0.00 0.00 0.00 0.01 0.01 0.01 0.01 0.01 0.01 0.04 0.03 0.02 0.02 0.02 0.02 0.01 0.01 0.02 0.03 0.03 0.03 0.03 0.03 0.02 0.03 0.03 0.03 0.04 0.05 0.05 0.04 0.03 0.03 0.03 0.05 0.05 0.05 0.05 0.05 0.04 0.04
0.00 0.00 0.00 0.00 0.00 0.00 0.00 0.00 0.00 0.00 0.00 0.00 0.01 0.01 0.00 0.01 0.01 0.03 0.04 0.03 0.01 0.02 0.02 0.01 0.01 0.02 0.02 0.03 0.03 0.04 0.03 0.02 0.03 0.03 0.04 0.04 0.04 0.05 0.04 0.04 0.04 0.04 0.05 0.05 0.04 0.05 0.05 0.05 0.04
0.00 0.00 0.00 0.00 0.00 0.00 0.00 0.00 0.00 0.00 0.00 0.00 0.00 0.00 0.00 0.01 0.01 0.01 0.03 0.02 0.02 0.01 0.01 0.01 0.02 0.02 0.02 0.02 0.03 0.02 0.02 0.02 0.02 0.03 0.04 0.04 0.03 0.03 0.03 0.03 0.04 0.04 0.05 0.05 0.05 0.05 0.06 0.06 0.04
0.00 0.00 0.00 0.00 0.00 0.00 0.00 0.01 0.01 0.00 0.01 0.01 0.01 0.00 0.01 0.01 0.00 0.01 0.02 0.03 0.02 0.01 0.01 0.01 0.02 0.01 0.02 0.02 0.02 0.03 0.02 0.03 0.03 0.03 0.02 0.03 0.02 0.02 0.02 0.02 0.03 0.03 0.04 0.05 0.05 0.06 0.07 0.06 0.05
0.00 0.00 0.00 0.00 0.00 0.00 0.00 0.00 0.00 0.00 0.01 0.01 0.01 0.01 0.01 0.01 0.01 0.01 0.01 0.02 0.02 0.02 0.02 0.01 0.01 0.01 0.01 0.01 0.02 0.03 0.02 0.02 0.03 0.03 0.03 0.03 0.03 0.02 0.02 0.02 0.03 0.04 0.05 0.05 0.05 0.05 0.04 0.04 0.04
0.00 0.00 0.00 0.00 0.00 0.00 0.00 0.00 0.01 0.00 0.01 0.01 0.01 0.01 0.01 0.00 0.00 0.01 0.01 0.01 0.01 0.02 0.03 0.02 0.02 0.02 0.01 0.01 0.01 0.01 0.02 0.03 0.04 0.05 0.05 0.06 0.05 0.04 0.03 0.02 0.03 0.04 0.05 0.06 0.04 0.03 0.04 0.04 0.05
0.00 0.00 0.00 0.01 0.01 0.01 0.00 0.00 0.01 0.01 0.01 0.01 0.01 0.00 0.00 0.00 0.01 0.00 0.01 0.02 0.02 0.02 0.03 0.03 0.03 0.02 0.02 0.02 0.02 0.02 0.03 0.04 0.04 0.04 0.05 0.06 0.06 0.05 0.04 0.04 0.04 0.04 0.04 0.05 0.04 0.03 0.03 0.04 0.05
0.00 0.00 0.00 0.01 0.01 0.00 0.00 0.01 0.01 0.01 0.01 0.01 0.01 0.01 0.01 0.01 0.01 0.01 0.01 0.02 0.01 0.01 0.01 0.02 0.03 0.02 0.02 0.02 0.02 0.02 0.02 0.02 0.02 0.03 0.04 0.05 0.05 0.05 0.04 0.04 0.05 0.05 0.05 0.05 0.04 0.05 0.05 0.06 0.05
0.01 0.00 0.00 0.00 0.00 0.00 0.00 0.01 0.01 0.01 0.00 0.00 0.01 0.01 0.01 0.01 0.01 0.01 0.01 0.01 0.01 0.01 0.01 0.01 0.02 0.02 0.01 0.01 0.01 0.02 0.02 0.03 0.03 0.05 0.05 0.04 0.03 0.03 0.03 0.02 0.03 0.04 0.04 0.05 0.05 0.06 0.06 0.06 0.07
0.00 0.00 0.00 0.00 0.00 0.01 0.01 0.01 0.01 0.01 0.01 0.00 0.00 0.01 0.01 0.01 0.00 0.01 0.01 0.01 0.01 0.01 0.01 0.01 0.02 0.02 0.02 0.02 0.02 0.02 0.03 0.05 0.05 0.04 0.03 0.03 0.02 0.02 0.02 0.01 0.02 0.02 0.04 0.06 0.05 0.05 0.05 0.06 0.07
0.00 0.00 0.00 0.00 0.00 0.00 0.01 0.01 0.00 0.00 0.00 0.00 0.00 0.00 0.00 0.00 0.00 0.00 0.00 0.00 0.01 0.01 0.01 0.01 0.01 0.02 0.03 0.03 0.03 0.04 0.07 0.07 0.06 0.03 0.02 0.01 0.01 0.01 0.01 0.01 0.01 0.01 0.02 0.03 0.04 0.05 0.05 0.05 0.05
0.00 0.00 0.00 0.00 0.00 0.00 0.01 0.01 0.00 0.00 0.00 0.00 0.00 0.00 0.00 0.00 0.00 0.00 0.00 0.00 0.00 0.01 0.01 0.01 0.02 0.02 0.04 0.05 0.07 0.08 0.08 0.07 0.05 0.03 0.01 0.01 0.01 0.01 0.01 0.01 0.01 0.01 0.01 0.02 0.03 0.03 0.03 0.03 0.03
MSLP
1008.79 1009.38 1010.10 1010.85 1011.56 1012.13 1012.52 1012.73 1012.77 1012.72 1012.62 1012.54 1012.47 1012.41 1012.30 1012.08 1011.72 1011.19 1010.53 1009.82 1009.15 1008.62 1008.28 1008.16 1008.23 1008.38 1008.51 1008.53 1008.37 1008.00 1007.44 1006.78 1006.09 1005.46 1004.93 1004.51 1004.18 1003.92 1003.68 1003.44 1003.18 1002.91 1002.67 1002.46 1002.29 1002.16 1002.04 1001.91 1001.76
1008.79 1009.51 1010.35 1011.19 1011.94 1012.52 1012.88 1013.02 1012.98 1012.82 1012.61 1012.41 1012.22 1012.04 1011.83 1011.55 1011.14 1010.62 1010.00 1009.36 1008.78 1008.34 1008.08 1008.02 1008.11 1008.28 1008.42 1008.46 1008.34 1008.03 1007.57 1007.01 1006.43 1005.88 1005.40 1005.01 1004.69 1004.40 1004.13 1003.84 1003.55 1003.25 1002.97 1002.72 1002.49 1002.30 1002.10 1001.89 1001.67
1008.94 1009.80 1010.72 1011.62 1012.38 1012.93 1013.23 1013.30 1013.17 1012.91 1012.60 1012.28 1011.98 1011.69 1011.39 1011.03 1010.59 1010.06 1009.48 1008.90 1008.40 1008.02 1007.82 1007.80 1007.91 1008.08 1008.22 1008.28 1008.19 1007.95 1007.58 1007.13 1006.65 1006.20 1005.80 1005.45 1005.14 1004.85 1004.55 1004.24 1003.92 1003.60 1003.30 1003.03 1002.78 1002.55 1002.31 1002.06 1001.80
1009.28 1010.23 1011.21 1012.12 1012.85 1013.35 1013.58 1013.56 1013.34 1012.99 1012.58 1012.18 1011.79 1011.42 1011.05 1010.64 1010.16 1009.63 1009.07 1008.53 1008.08 1007.75 1007.58 1007.57 1007.67 1007.83 1007.96 1008.01 1007.95 1007.76 1007.47 1007.12 1006.75 1006.40 1006.07 1005.78 1005.50 1005.22 1004.93 1004.62 1004.29 1003.98 1003.69 1003.42 1003.17 1002.93 1002.68 1002.43 1002.16
1009.78 1010.78 1011.78 1012.65 1013.32 1013.73 1013.87 1013.76 1013.46 1013.05 1012.59 1012.13 1011.70 1011.29 1010.87 1010.42 1009.93 1009.40 1008.85 1008.34 1007.90 1007.60 1007.43 1007.41 1007.48 1007.59 1007.69 1007.72 1007.66 1007.51 1007.28 1007.01 1006.73 1006.46 1006.21 1005.98 1005.74 1005.49 1005.21 1004.92 1004.62 1004.34 1004.07 1003.84 1003.62 1003.40 1003.17 1002.92 1002.67
1010.38 1011.40 1012.35 1013.15 1013.72 1014.02 1014.06 1013.88 1013.53 1013.08 1012.61 1012.15 1011.71 1011.30 1010.88 1010.43 1009.94 1009.41 1008.87 1008.36 1007.94 1007.62 1007.43 1007.36 1007.38 1007.43 1007.47 1007.47 1007.39 1007.25 1007.06 1006.85 1006.64 1006.44 1006.25 1006.06 1005.86 1005.63 1005.39 1005.12 1004.86 1004.62 1004.40 1004.21 1004.03 1003.85 1003.66 1003.44 1003.21
1011.02 1011.99 1012.85 1013.54 1013.98 1014.18 1014.13 1013.88 1013.51 1013.07 1012.63 1012.21 1011.82 1011.44 1011.05 1010.63 1010.16 1009.64 1009.12 1008.61 1008.18 1007.84 1007.61 1007.48 1007.43 1007.40 1007.37 1007.31 1007.21 1007.06 1006.89 1006.72 1006.55 1006.39 1006.24 1006.08 1005.90 1005.70 1005.47 1005.23 1005.00 1004.79 1004.62 1004.47 1004.33 1004.19 1004.03 1003.84 1003.64
1011.59 1012.48 1013.22 1013.77 1014.09 1014.17 1014.05 1013.77 1013.40 1013.01 1012.62 1012.28 1011.97 1011.66 1011.34 1010.97 1010.54 1010.05 1009.54 1009.04 1008.59 1008.22 1007.94 1007.75 1007.62 1007.51 1007.41 1007.30 1007.16 1007.00 1006.84 1006.68 1006.54 1006.40 1006.27 1006.12 1005.95 1005.74 1005.51 1005.28 1005.06 1004.87 1004.72 1004.60 1004.49 1004.38 1004.24 1004.08 1003.90
1012.03 1012.81 1013.42 1013.84 1014.03 1014.02 1013.85 1013.56 1013.23 1012.89 1012.60 1012.35 1012.13 1011.91 1011.67 1011.36 1010.98 1010.54 1010.06 1009.57 1009.11 1008.71 1008.39 1008.13 1007.93 1007.75 1007.59 1007.43 1007.26 1007.09 1006.93 1006.79 1006.66 1006.54 1006.42 1006.26 1006.08 1005.85 1005.60 1005.35 1005.11 1004.91 1004.76 1004.64 1004.54 1004.43 1004.30 1004.14 1003.98
1012.32 1012.97 1013.46 1013.75 1013.84 1013.77 1013.57 1013.30 1013.01 1012.76 1012.55 1012.39 1012.27 1012.14 1011.97 1011.73 1011.41 1011.02 1010.57 1010.10 1009.65 1009.24 1008.88 1008.58 1008.32 1008.09 1007.88 1007.68 1007.50 1007.33 1007.18 1007.06 1006.95 1006.85 1006.72 1006.56 1006.35 1006.09 1005.81 1005.51 1005.24 1005.00 1004.82 1004.67 1004.55 1004.43 1004.29 1004.12 1003.94
1012.44 1012.99 1013.37 1013.56 1013.59 1013.49 1013.29 1013.05 1012.82 1012.64 1012.51 1012.43 1012.38 1012.31 1012.20 1012.02 1011.76 1011.41 1011.01 1010.57 1010.14 1009.73 1009.36 1009.03 1008.74 1008.48 1008.25 1008.04 1007.85 1007.69 1007.57 1007.48 1007.40 1007.31 1007.20 1007.03 1006.80 1006.51 1006.18 1005.84 1005.52 1005.23 1005.00 1004.81 1004.64 1004.48 1004.31 1004.11 1003.90
1012.47 1012.93 1013.23 1013.37 1013.36 1013.25 1013.08 1012.89 1012.71 1012.58 1012.51 1012.47 1012.45 1012.42 1012.35 1012.20 1011.97 1011.67 1011.32 1010.92 1010.53 1010.14 1009.78 1009.45 1009.16 1008.89 1008.65 1008.44 1008.27 1008.14 1008.06 1008.00 1007.96 1007.90 1007.80 1007.64 1007.41 1007.10 1006.74 1006.36 1005.98 1005.64 1005.35 1005.10 1004.88 1004.67 1004.45 1004.21 1003.95
1012.47 1012.87 1013.12 1013.23 1013.23 1013.14 1013.01 1012.86 1012.73 1012.63 1012.57 1012.54 1012.51 1012.48 1012.40 1012.26 1012.06 1011.80 1011.48 1011.15 1010.80 1010.45 1010.13 1009.82 1009.55 1009.29 1009.07 1008.88 1008.73 1008.64 1008.59 1008.57 1008.57 1008.55 1008.48 1008.34 1008.12 1007.81 1007.44 1007.03 1006.61 1006.23 1005.88 1005.58 1005.31 1005.05 1004.78 1004.49 1004.19
1012.52 1012.88 1013.11 1013.23 1013.25 1013.20 1013.11 1013.00 1012.89 1012.79 1012.71 1012.64 1012.57 1012.49 1012.38 1012.23 1012.03 1011.80 1011.53 1011.25 1010.96 1010.68 1010.40 1010.14 1009.90 1009.68 1009.48 1009.32 1009.20 1009.14 1009.12 1009.14 1009.18 1009.19 1009.16 1009.05 1008.85 1008.56 1008.20 1007.78 1007.35 1006.93 1006.55 1006.20 1005.88 1005.58 1005.27 1004.95 1004.60
1012.67 1013.01 1013.24 1013.37 1013.43 1013.43 1013.38 1013.29 1013.17 1013.05 1012.91 1012.78 1012.63 1012.48 1012.31 1012.13 1011.93 1011.72 1011.49 1011.27 1011.05 1010.83 1010.63 1010.42 1010.23 1010.05 1009.89 1009.76 1009.67 1009.63 1009.63 1009.67 1009.73 1009.77 1009.76 1009.69 1009.52 1009.26 1008.92 1008.52 1008.09 1007.66 1007.26 1006.88 1006.54 1006.20 1005.87 1005.52 1005.16
1012.93 1013.24 1013.48 1013.64 1013.74 1013.78 1013.75 1013.67 1013.54 1013.36 1013.16 1012.93 1012.69 1012.45 1012.22 1012.00 1011.79 1011.59 1011.41 1011.25 1011.09 1010.95 1010.82 1010.69 1010.55 1010.42 1010.30 1010.20 1010.13 1010.10 1010.11 1010.15 1010.21 1010.25 1010.26 1010.21 1010.07 1009.85 1009.54 1009.17 1008.76 1008.34 1007.93 1007.54 1007.18 1006.83 1006.49 1006.14 1005.77
1013.25 1013.55 1013.79 1013.98 1014.12 1014.18 1014.17 1014.08 1013.92 1013.68 1013.39 1013.06 1012.73 1012.40 1012.11 1011.84 1011.62 1011.44 1011.31 1011.20 1011.12 1011.06 1011.00 1010.94 1010.87 1010.80 1010.72 1010.65 1010.59 1010.56 1010.55 1010.58 1010.61 1010.65 1010.65 1010.60 1010.49 1010.29 1010.02 1009.68 1009.30 1008.90 1008.50 1008.11 1007.74 1007.39 1007.05 1006.71 1006.37
1013.56 1013.85 1014.11 1014.32 1014.48 1014.57 1014.57 1014.46 1014.24 1013.93 1013.55 1013.14 1012.72 1012.32 1011.96 1011.67 1011.45 1011.29 1011.19 1011.15 1011.13 1011.14 1011.16 1011.18 1011.18 1011.16 1011.13 1011.09 1011.05 1011.01 1010.98 1010.97 1010.97 1010.97 1010.95 1010.90 1010.79 1010.62 1010.38 1010.07 1009.72 1009.34 1008.95 1008.57 1008.20 1007.85 1007.52 1007.20 1006.90
1013.81 1014.09 1014.36 1014.60 1014.79 1014.89 1014.88 1014.74 1014.47 1014.09 1013.63 1013.12 1012.63 1012.17 1011.77 1011.47 1011.25 1011.12 1011.07 1011.08 1011.13 1011.21 1011.30 1011.38 1011.45 1011.50 1011.52 1011.52 1011.49 1011.45 1011.41 1011.36 1011.32 1011.27 1011.22 1011.14 1011.03 1010.87 1010.65 1010.38 1010.06 1009.71 1009.33 1008.95 1008.58 1008.24 1007.92 1007.62 1007.35
1013.93 1014.21 1014.51 1014.78 1014.99 1015.10 1015.08 1014.90 1014.58 1014.12 1013.58 1013.01 1012.45 1011.94 1011.53 1011.22 1011.02 1010.93 1010.92 1010.98 1011.09 1011.23 1011.38 1011.53 1011.67 1011.78 1011.86 1011.90 1011.91 1011.87 1011.82 1011.74 1011.66 1011.57 1011.48 1011.38 1011.26 1011.11 1010.91 1010.67 1010.38 1010.05 1009.69 1009.32 1008.95 1008.61 1008.29 1008.01 1007.76
1013.91 1014.22 1014.55 1014.86 1015.10 1015.22 1015.17 1014.95 1014.56 1014.03 1013.42 1012.78 1012.17 1011.64 1011.22 1010.92 1010.75 1010.69 1010.73 1010.83 1010.99 1011.18 1011.39 1011.61 1011.81 1011.99 1012.13 1012.22 1012.26 1012.25 1012.20 1012.11 1012.01 1011.89 1011.77 1011.65 1011.52 1011.38 1011.21 1011.00 1010.74 1010.44 1010.10 1009.73 1009.37 1009.01 1008.69 1008.41 1008.18
1013.78 1014.14 1014.53 1014.88 1015.15 1015.26 1015.19 1014.91 1014.45 1013.85 1013.16 1012.46 1011.80 1011.25 1010.84 1010.56 1010.42 1010.40 1010.48 1010.63 1010.83 1011.07 1011.32 1011.59 1011.85 1012.09 1012.29 1012.44 1012.54 1012.56 1012.53 1012.45 1012.34 1012.21 1012.08 1011.95 1011.83 1011.70 1011.56 1011.38 1011.16 1010.89 1010.57 1010.22 1009.86 1009.50 1009.17 1008.87 1008.63
1013.61 1014.03 1014.48 1014.88 1015.16 1015.27 1015.16 1014.82 1014.28 1013.59 1012.82 1012.06 1011.37 1010.81 1010.40 1010.14 1010.04 1010.07 1010.19 1010.37 1010.61 1010.88 1011.17 1011.48 1011.79 1012.08 1012.34 1012.56 1012.71 1012.78 1012.79 1012.73 1012.63 1012.51 1012.38 1012.26 1012.15 1012.04 1011.93 1011.79 1011.61 1011.38 1011.09 1010.76 1010.40 1010.04 1009.69 1009.38 1009.12
1013.46 1013.95 1014.45 1014.89 1015.18 1015.26 1015.09 1014.68 1014.05 1013.28 1012.44 1011.62 1010.89 1010.31 1009.91 1009.68 1009.62 1009.68 1009.84 1010.06 1010.33 1010.63 1010.95 1011.29 1011.63 1011.97 1012.29 1012.56 1012.76 1012.89 1012.94 1012.92 1012.85 1012.74 1012.62 1012.52 1012.42 1012.35 1012.27 1012.17 1012.03 1011.84 1011.59 1011.29 1010.94 1010.58 1010.22 1009.89 1009.61
1013.37 1013.91 1014.45 1014.90 1015.18 1015.22 1014.99 1014.50 1013.78 1012.92 1012.00 1011.13 1010.37 1009.78 1009.39 1009.19 1009.16 1009.26 1009.45 1009.71 1010.00 1010.32 1010.66 1011.02 1011.40 1011.77 1012.13 1012.45 1012.70 1012.88 1012.98 1013.00 1012.95 1012.87 1012.77 1012.68 1012.61 1012.56 1012.51 1012.44 1012.35 1012.20 1011.99 1011.72 1011.40 1011.05 1010.69 1010.34 1010.03
1013.33 1013.91 1014.47 1014.90 1015.15 1015.13 1014.82 1014.24 1013.44 1012.50 1011.53 1010.61 1009.83 1009.24 1008.85 1008.68 1008.68 1008.81 1009.03 1009.31 1009.62 1009.96 1010.31 1010.69 1011.08 1011.49 1011.88 1012.23 1012.53 1012.76 1012.90 1012.95 1012.94 1012.88 1012.80 1012.73 1012.67 1012.63 1012.60 1012.56 1012.50 1012.39 1012.22 1011.98 1011.69 1011.36 1011.01 1010.66 1010.33
1013.33 1013.90 1014.43 1014.83 1015.02 1014.93 1014.54 1013.89 1013.02 1012.02 1011.00 1010.06 1009.27 1008.69 1008.32 1008.16 1008.18 1008.34 1008.58 1008.87 1009.20 1009.55 1009.91 1010.30 1010.70 1011.13 1011.54 1011.93 1012.27 1012.53 1012.70 1012.79 1012.81 1012.77 1012.71 1012.64 1012.59 1012.55 1012.53 1012.51 1012.47 1012.39 1012.25 1012.05 1011.79 1011.49 1011.15 1010.81 1010.47
1013.28 1013.82 1014.30 1014.63 1014.74 1014.58 1014.13 1013.41 1012.50 1011.48 1010.45 1009.51 1008.73 1008.16 1007.81 1007.66 1007.70 1007.86 1008.11 1008.41 1008.73 1009.08 1009.45 1009.84 1010.26 1010.69 1011.13 1011.55 1011.92 1012.21 1012.43 1012.55 1012.59 1012.57 1012.52 1012.45 1012.40 1012.37 1012.35 1012.33 1012.30 1012.24 1012.12 1011.95 1011.72 1011.44 1011.13 1010.79 1010.46
1013.14 1013.62 1014.02 1014.27 1014.30 1014.07 1013.56 1012.82 1011.90 1010.89 1009.88 1008.97 1008.22 1007.67 1007.34 1007.21 1007.24 1007.40 1007.63 1007.91 1008.23 1008.56 1008.92 1009.32 1009.74 1010.20 1010.66 1011.10 1011.50 1011.84 1012.09 1012.25 1012.32 1012.32 1012.28 1012.23 1012.17 1012.13 1012.10 1012.08 1012.05 1012.00 1011.90 1011.75 1011.54 1011.28 1010.99 1010.67 1010.34
1012.88 1013.28 1013.59 1013.76 1013.71 1013.42 1012.89 1012.15 1011.26 1010.29 1009.34 1008.48 1007.78 1007.27 1006.95 1006.82 1006.83 1006.96 1007.17 1007.41 1007.70 1008.01 1008.36 1008.75 1009.18 1009.65 1010.14 1010.62 1011.06 1011.44 1011.73 1011.93 1012.04 1012.08 1012.06 1012.01 1011.96 1011.92 1011.88 1011.86 1011.82 1011.77 1011.68 1011.54 1011.34 1011.10 1010.82 1010.51 1010.19
Thickness
5815 5818 5819 5813 5806 5801 5789 5794 5799 5797 5797 5801 5801 5798 5791 5785 5780 5772 5792 5800 5799 5798 5795 5791 5788 5788 5787 5787 5787 5787 5787 5787 5786 5786 5785 5784 5783 5783 5782 5782 5781 5780 5779 5778 5776 5774 5773 5772 5771
5823 5822 5817 5814 5804 5787 5784 5796 5795 5796 5800 5805 5803 5799 5793 5788 5792 5792 5796 5797 5799 5798 5796 5792 5788 5787 5787 5786 5786 5786 5786 5786 5785 5785 5784 5783 5782 5781 5781 5780 5779 5779 5778 5776 5774 5773 5772 5771 5770
5826 5823 5817 5815 5801 5789 5785 5796 5797 5801 5806 5804 5799 5799 5793 5786 5791 5794 5797 5799 5799 5798 5796 5791 5787 5786 5786 5785 5785 5785 5785 5785 5785 5784 5783 5782 5781 5780 5779 5778 5778 5777 5776 5774 5773 5771 5770 5769 5767
5827 5822 5820 5811 5796 5799 5800 5801 5805 5802 5804 5804 5801 5794 5793 5794 5796 5797 5799 5799 5799 5798 5796 5791 5787 5785 5785 5784 5784 5784 5783 5783 5783 5783 5781 5781 5780 5778 5777 5777 5776 5775 5774 5773 5771 5770 5768 5767 5766
5829 5822 5814 5804 5800 5805 5811 5810 5809 5802 5799 5801 5800 5790 5787 5795 5800 5800 5800 5799 5798 5797 5796 5791 5786 5785 5784 5784 5783 5782 5781 5781 5781 5780 5780 5779 5778 5777 5776 5775 5774 5774 5773 5772 5770 5768 5767 5766 5765
5825 5824 5808 5797 5799 5807 5812 5814 5811 5804 5801 5801 5800 5792 5788 5797 5798 5799 5800 5799 5799 5797 5796 5792 5787 5786 5785 5784 5782 5781 5780 5779 5779 5778 5778 5777 5776 5775 5775 5774 5774 5773 5771 5770 5769 5767 5766 5765 5764
5822 5819 5807 5805 5803 5804 5809 5817 5810 5805 5800 5801 5804 5793 5791 5795 5798 5800 5799 5799 5798 5797 5795 5793 5791 5788 5785 5784 5782 5781 5779 5778 5777 5777 5776 5776 5775 5775 5774 5773 5773 5772 5771 5769 5768 5767 5765 5764 5763
5833 5824 5813 5809 5805 5802 5814 5816 5814 5810 5803 5810 5809 5795 5789 5796 5801 5801 5798 5797 5796 5796 5795 5794 5792 5790 5789 5786 5782 5780 5778 5777 5776 5776 5776 5776 5776 5775 5774 5774 5772 5771 5770 5769 5768 5766 5765 5763 5762
5836 5821 5808 5809 5807 5808 5817 5814 5815 5819 5810 5808 5808 5805 5803 5804 5803 5798 5795 5794 5792 5792 5793 5793 5792 5791 5789 5787 5784 5781 5778 5776 5776 5775 5775 5776 5778 5778 5776 5774 5771 5771 5770 5769 5768 5767 5765 5763 5761
5831 5816 5813 5820 5822 5819 5819 5816 5815 5812 5804 5802 5802 5804 5805 5803 5800 5794 5791 5790 5789 5788 5791 5792 5790 5790 5789 5787 5784 5783 5782 5778 5777 5776 5776 5777 5777 5777 5776 5772 5771 5770 5770 5769 5768 5768 5766 5764 5764
5830 5819 5824 5827 5829 5828 5821 5819 5821 5812 5802 5804 5801 5801 5802 5800 5797 5794 5792 5791 5789 5789 5790 5790 5789 5787 5787 5786 5784 5782 5781 5779 5778 5776 5775 5775 5776 5777 5776 5775 5773 5772 5771 5771 5770 5769 5768 5766 5764
5829 5828 5830 5830 5831 5828 5823 5821 5817 5814 5810 5816 5813 5808 5803 5799 5797 5795 5792 5790 5790 5789 5789 5789 5789 5786 5784 5784 5783 5782 5781 5779 5778 5776 5775 5775 5774 5774 5773 5772 5773 5772 5772 5770 5770 5768 5766 5764 5763
5828 5828 5832 5833 5831 5829 5826 5821 5817 5814 5818 5818 5813 5807 5803 5801 5799 5798 5797 5795 5791 5788 5787 5787 5786 5784 5783 5781 5781 5781 5780 5779 5778 5775 5774 5773 5772 5771 5772 5770 5770 5771 5770 5769 5767 5767 5765 5763 5763
5832 5832 5831 5833 5831 5829 5822 5820 5819 5814 5820 5814 5809 5805 5804 5802 5800 5798 5796 5793 5791 5789 5788 5787 5786 5784 5782 5781 5780 5780 5780 5778 5777 5775 5773 5772 5772 5770 5769 5769 5768 5769 5768 5768 5766 5765 5764 5764 5763
5838 5829 5828 5830 5830 5828 5826 5813 5815 5820 5820 5812 5808 5806 5804 5803 5802 5798 5797 5794 5794 5792 5790 5787 5786 5784 5782 5781 5780 5781 5780 5779 5778 5775 5773 5771 5771 5769 5768 5768 5768 5767 5767 5765 5765 5764 5764 5763 5762
5835 5826 5818 5826 5829 5829 5821 5804 5816 5823 5819 5811 5809 5808 5805 5804 5803 5802 5800 5797 5795 5793 5789 5788 5788 5785 5782 5780 5779 5781 5780 5778 5777 5775 5774 5771 5770 5768 5768 5767 5767 5766 5767 5766 5765 5763 5762 5761 5760
5825 5819 5817 5821 5831 5829 5822 5812 5818 5824 5819 5812 5810 5809 5807 5805 5803 5803 5802 5800 5797 5794 5790 5788 5786 5785 5783 5781 5779 5779 5777 5777 5776 5775 5773 5771 5770 5768 5768 5767 5765 5766 5766 5765 5765 5762 5761 5758 5757
5817 5821 5819 5818 5828 5826 5819 5818 5820 5824 5820 5816 5813 5810 5808 5806 5805 5806 5804 5802 5799 5796 5792 5789 5786 5784 5783 5782 5780 5778 5777 5777 5776 5775 5772 5771 5770 5768 5768 5767 5765 5766 5765 5763 5761 5759 5758 5758 5757
5826 5822 5818 5821 5830 5823 5817 5817 5820 5822 5819 5816 5814 5812 5809 5809 5811 5810 5806 5803 5799 5796 5792 5789 5786 5784 5782 5781 5779 5777 5776 5776 5776 5775 5772 5771 5770 5768 5767 5767 5765 5765 5763 5761 5761 5759 5758 5758 5758
5825 5819 5819 5821 5827 5822 5817 5816 5822 5822 5819 5820 5817 5814 5813 5812 5811 5808 5806 5803 5800 5796 5793 5790 5788 5786 5784 5781 5779 5778 5776 5777 5776 5775 5772 5771 5770 5769 5769 5766 5766 5765 5762 5760 5759 5758 5757 5758 5758
5823 5821 5819 5816 5820 5825 5818 5810 5815 5821 5824 5823 5822 5821 5819 5815 5812 5808 5806 5804 5802 5798 5795 5793 5790 5787 5784 5782 5781 5779 5777 5776 5775 5773 5772 5771 5770 5769 5767 5766 5765 5763 5763 5761 5759 5758 5756 5755 5757
5817 5828 5825 5820 5813 5813 5814 5799 5812 5818 5817 5818 5820 5821 5820 5819 5816 5813 5809 5805 5803 5801 5799 5795 5791 5788 5785 5783 5781 5778 5774 5772 5772 5773 5772 5771 5770 5768 5767 5766 5764 5763 5763 5761 5760 5760 5758 5755 5754
5823 5830 5826 5823 5817 5813 5815 5805 5810 5818 5810 5816 5820 5822 5823 5822 5819 5815 5813 5809 5807 5805 5802 5797 5792 5788 5786 5784 5781 5777 5776 5775 5775 5774 5771 5770 5770 5769 5767 5766 5764 5762 5762 5760 5758 5757 5756 5756 5754
5828 5824 5822 5822 5820 5797 5807 5801 5799 5814 5813 5818 5822 5823 5823 5823 5821 5817 5815 5812 5808 5806 5803 5799 5792 5788 5786 5784 5782 5778 5775 5774 5772 5770 5770 5770 5770 5769 5767 5766 5763 5762 5761 5759 5757 5756 5755 5754 5752
5822 5812 5798 5794 5796 5796 5811 5801 5801 5817 5822 5821 5820 5821 5823 5824 5821 5817 5814 5810 5807 5805 5802 5798 5792 5787 5786 5784 5782 5779 5776 5774 5771 5770 5770 5769 5769 5768 5765 5765 5762 5761 5760 5758 5756 5754 5753 5752 5749
5817 5815 5795 5783 5788 5801 5804 5796 5809 5821 5824 5825 5823 5824 5823 5823 5822 5819 5816 5811 5808 5805 5802 5798 5792 5788 5786 5784 5781 5779 5777 5776 5775 5771 5770 5769 5768 5768 5765 5763 5761 5760 5758 5758 5755 5755 5752 5750 5747
5809 5813 5823 5808 5802 5794 5802 5803 5810 5818 5817 5819 5819 5819 5819 5820 5820 5818 5816 5813 5809 5805 5801 5799 5794 5789 5786 5784 5781 5778 5776 5774 5773 5770 5769 5768 5766 5766 5763 5761 5760 5758 5756 5754 5752 5751 5748 5747 5745
5820 5819 5810 5802 5782 5781 5791 5797 5802 5804 5807 5813 5813 5814 5816 5818 5817 5816 5814 5812 5809 5806 5803 5800 5795 5789 5786 5783 5780 5779 5776 5773 5770 5768 5766 5764 5763 5761 5760 5758 5757 5755 5753 5751 5748 5747 5745 5742 5741
5806 5807 5807 5807 5801 5789 5782 5794 5815 5811 5811 5811 5812 5813 5813 5814 5814 5812 5811 5810 5808 5806 5803 5797 5794 5789 5785 5782 5779 5776 5774 5771 5768 5766 5764 5762 5760 5758 5756 5754 5753 5751 5749 5747 5745 5744 5741 5738 5737
5814 5810 5807 5795 5789 5794 5791 5793 5820 5816 5816 5813 5811 5810 5811 5811 5811 5810 5808 5806 5804 5802 5800 5796 5792 5788 5785 5781 5777 5774 5771 5768 5765 5763 5761 5759 5756 5755 5753 5751 5749 5748 5746 5743 5741 5739 5738 5735 5732